Regional Weather Roundup
Issued by NWS State College, PA

Home | Current Version | Previous Version | Text Only | Print | Product List | Glossary Off
Versions: 1 2 3 4 5 6 7 8 9 10 11 12 13 14 15 16 17 18 19 20 21 22 23 24 25 26 27 28 29 30 31 32 33 34 35 36 37 38 39 40 41 42 43 44 45 46 47 48 49 50

000
ASUS41 KCTP 290510
RWRCTP

REGIONAL WEATHER ROUNDUP
NATIONAL WEATHER SERVICE STATE COLLEGE PA
100 AM EDT FRI AUG 29 2014

Note: "fair" indicates few or no clouds below 12,000 feet with no
significant weather and/or obstructions to visibility.

* = STATION THAT DOES NOT REPORT PRECIPITATION /E.G. RAIN...SNOW...ETC/
    THUNDER OR FOG.

PAZ002>004-007>009-013>016-020>023-029>032-290600-
WESTERN PENNSYLVANIA

CITY           SKY/WX    TMP DP  RH WIND       PRES   REMARKS
ERIE           PTCLDY    56  50  80 S5        30.17R
MEADVILLE      CLEAR     53  49  86 CALM      30.18S
FRANKLIN*      CLEAR     50  46  87 CALM      30.20R
NEW CASTLE     FAIR      51  50  97 CALM      30.19S
BEAVER COUNTY  NOT AVBL
BUTLER*        CLEAR     52  48  87 CALM      30.19F
PITTSBURGH INT PTCLDY    59  51  75 CALM      30.17S
PITTSBURGH     CLEAR     60  49  66 NE5       30.16S
INDIANA*       PTCLDY    54  52  94 CALM      30.22S
LATROBE        CLEAR     54  54 100 CALM      30.18S
WASHINGTON CO* MOCLDY    50  46  87 CALM      30.17S VSB 1
$$

PAZ004>006-010>012-017>019-024>028-033>037-041-042-045-046-049>053-290600-
CENTRAL PENNSYLVANIA

CITY           SKY/WX    TMP DP  RH WIND       PRES   REMARKS
BRADFORD       PTCLDY    46  43  89 CALM      30.20R
DUBOIS         CLEAR     53  47  79 CALM      30.18R
CLEARFIELD     CLEAR     53  48  83 CALM      30.19R
JOHNSTOWN      CLEAR     56  48  74 E5        30.19S
ALTOONA        CLEAR     54  52  93 CALM      30.18R
STATE COLLEGE  PTCLDY    57  50  75 CALM      30.17S
WILLIAMSPORT   CLEAR     55  49  80 CALM      30.15R
SELINSGROVE    CLEAR     53  51  93 CALM      30.15R
FT INDIANTOWN  CLEAR     61  49  64 VRB5      30.13S
CAPITAL CITY   CLEAR     65  47  52 NE5       30.14R
HARRISBURG     PTCLDY    59  49  69 CALM      30.13R
YORK           CLEAR     52  51  97 CALM      30.13R
$$

PAZ038>040-043-044-047-048-054-055-060>062-067>071-290600-
EASTERN PENNSYLVANIA

CITY           SKY/WX    TMP DP  RH WIND       PRES   REMARKS
SCRANTON       CLEAR     54  49  83 CALM      30.14R
MOUNT POCONO   CLEAR     51  47  86 NW7       30.13S
ALLENTOWN      CLEAR     60  47  61 NW5       30.12R
QUAKERTOWN*    CLEAR     61  48  63 MISG      30.12S
READING        CLEAR     62  48  60 NE3       30.11S
LANCASTER      CLEAR     61  49  64 N3        30.13R
COATESVILLE    CLEAR     59  50  72 N5        30.13S
POTTSTOWN      CLEAR     59  47  64 N7        30.13R
BLUE BELL      CLEAR     61  50  67 CALM      30.10S
DOYLESTOWN     CLEAR     60  48  64 N5        30.10R
WILLOW GROVE   NOT AVBL
NORTH PHILA    CLEAR     63  47  55 N8        30.11S
PHILADELPHIA   CLEAR     67  47  48 N10       30.11R
$$


USA.gov is the U.S. government's official web portal to all federal, state and local government web resources and services.